Current Weather Conditions by Major Hwy


I-84 West to East [Columbia River Gorge] 600 PM PST WED NOV 14 2018 ELEVA CITY SKY/WX TMP DP RH WIND PRES REMARKS 10 ASTORIA, OR CLOUDY 49 48 97 SE3 30.38S 20 KELSO CLOUDY 48 45 89 SE6 30.41S 40 PORTLAND, OR CLOUDY 48 45 89 E3 30.42S FOG 30 TROUTDALE, OR CLOUDY 47 44 90 N3 30.41F FOG 240 THE DALLES, OR PTCLDY 50 43 77 CALM 30.35F 620 HERMISTON, OR CLOUDY 46 32 58 S7 30.31R 1,480 PENDLETON, OR CLOUDY 43 30 60 E8 30.32R 2,710 LA GRANDE N/A N/A N/A N/A MISG N/A 3,370 BAKER CITY CLOUDY 41 19 41 CALM 30.38R 2,190 ONTARIO MOCLDY 36 18 48 SW5 30.42S HAZE
I-90 West to East 600 PM PST WED NOV 14 2018 ELEVA CITY SKY/WX TMP DP RH WIND PRES REMARKS 30 SEATAC AIRPORT CLOUDY 53 48 83 SW5 30.34S 1,730 ELLENSBURG CLOUDY 39 31 72 S3 30.27R 1,200 MOSES LAKE CLOUDY 33 30 88 N8 30.33R 1,880 SPOKANE GEIGER CLOUDY 36 27 69 S6 30.28R
I-82 North West to South East 600 PM PST WED NOV 14 2018 ELEVA CITY SKY/WX TMP DP RH WIND PRES REMARKS 1,730 ELLENSBURG CLOUDY 39 31 72 S3 30.27R 1,050 YAKIMA TC FAIR 32 29 87 NW3 30.28S 720 360 PASCO CLOUDY 39 31 72 CALM 30.33S 620 HERMISTON, OR CLOUDY 46 32 58 S7 30.31R
Hwy97 North to South 600 PM PST WED NOV 14 2018 ELEVA CITY SKY/WX TMP DP RH WIND PRES REMARKS 850 OMAK CLOUDY 32 30 92 CALM 30.34S 630 WENATCHEE CLOUDY 32 29 88 CALM 30.32R 1,730 ELLENSBURG CLOUDY 39 31 72 S3 30.27R 1,050 YAKIMA TC FAIR 32 29 87 NW3 30.28S 1,640 GOLDENDALE* PTCLDY 50 43 77 CALM 30.35F *From Dallesport Airport Elev 240 3,080 REDMOND PTCLDY 46 29 51 CALM 30.34S 4,100 KLAMATH FALLS PTCLDY 41 14 33 CALM 30.36R
I-5 North to South 600 PM PST WED NOV 14 2018 ELEVA CITY SKY/WX TMP DP RH WIND PRES REMARKS 150 BELLINGHAM MOCLDY 51 47 86 S13G21 30.30S 100 ARLINGTON FOG 44 44 100 N5 30.34S VSB 1/4 610 EVERETT MOCLDY 50 48 93 SE5 30.34R 30 SEATAC AIRPORT CLOUDY 53 48 83 SW5 30.34S 200 OLYMPIA MOCLDY 47 45 93 SW6 30.36S 20 KELSO CLOUDY 48 45 89 SE6 30.41S 100 VANCOUVER CLOUDY 47 45 93 CALM 30.41S FOG 40 PORTLAND CLOUDY 48 45 89 E3 30.42S FOG 200 SALEM CLOUDY 51 44 77 SE5 30.39S 360 EUGENE MOCLDY 50 43 77 W6 30.39S 510 ROSEBURG CLOUDY 53 41 63 CALM 30.37S 1,300 MEDFORD PTCLDY 52 22 30 SW5 30.34R
Data from:
http://www.wrh.noaa.gov/sew/get.php?pil=RWR&sid=OR&version=0&format=printer
http://www.wrh.noaa.gov/sew/get.php?pil=RWR&sid=WA&version=0&format=printer

Current Observations

Washington State Current Weather Observations   …  Oregon State Current Weather Observation



48 Hour Forecast

Seattle  …  Vancouver  …  Portland
————————————————————————————————————————
Bend  …  Spokane  …  Richland  …  Pendleton  …  Blue Mountains I-84  …  Yakima
————————————————————————————————————————
Goldendale, Washington Higher Elevations  …  Dallesport Airport - Goldendale  …  Bingen - White Salmon - Hood River  …  Index


Top of Page